Location: Bremen
(53.0793°N, 8.8017°E)
Time: 23:04:06
(UTC+02:00)

Tiros 1 - Pass Details

Date: 26 April 2024
Orbit: 624 x 657 km, 48.4° (Epoch: 21 May)

Event Time Altitude Azimuth Distance (km) Brightness Sun altitude
Rises 01:06:59 0° 246° (WSW) 2,937 - -23.2°
Reaches altitude 10° 01:09:24 10° 239° (WSW) 2,024 - -23.3°
Maximum altitude 01:13:48 43° 169° (S) 893 - -23.3°
Drops below altitude 10° 01:18:10 10° 98° (E) 2,008 - -23.3°
Exits shadow 01:18:52 - 96° (E) 2,270 9.9 -23.3°
Sets 01:20:33 0° 92° (E) 2,912 10.5 -23.3°
